Сердар

Туркменистан     38°58′50″N   56°16′32″E
темп.,
°C
ветер,
м/с
пор.,
м/с
влажн.,
%
обл.,
%
осадки,
мм/ч
давл.,
гПа
погр.,
м
12 апреля, пн
пн1223:00+23в12181434 0.0 1015624
02:00+20в10162084 0.0 1016608
05:00+19в61124100 0.0 1017509
08:00+18всв7102886 0.0 1018775
11:00+16вюв91041100 0.0 1019686
14:00+21в1112248 0.0 1018904
17:00+21в1111240 0.0 10171120
20:00+19всв913310 0.0 1018631
13 апреля, вт
вт1323:00+17в714350 0.0 1019405
02:00+15в510370 0.0 1018208
05:00+14в58410 0.0 1018125
08:00+15в512410 0.0 1019332
11:00+21в912220 0.0 1019941
14:00+25в1111185 0.0 10181307
17:00+26в101017100 0.0 10161478
20:00+23всв813191 0.0 1016281
14 апреля, ср
ср1423:00+21всв713190 0.0 1016270
02:00+18всв58200 0.0 1015109
05:00+16в462482 0.0 101471
08:00+16в41026100 0.0 1014278
11:00+23в11131631 0.0 1013935
14:00+27в121314100 0.0 10111348
17:00+28в101114100 0.0 10091422
20:00+25всв71116100 0.0 1010254
15 апреля, чт
чт1523:00+22в5817100 0.0 1011107
02:00+20ююв453378 0.1 101158
05:00+17ююз456189 0.1 1013129
08:00+17юз5958100 0.0 1014602
11:00+21юз89390 0.0 10141025
14:00+25зюз77279 0.0 10131703
17:00+26зсз552283 0.0 10111999
20:00+24сз232516 0.0 101223
16 апреля, пт
пт1623:00+21зюз22320 0.0 101212
02:00+18сз23350 0.0 101236
05:00+16сз2239100 0.0 101217
08:00+18зсз2336100 0.0 1013106
11:00+20сз2228100 0.0 1014601
14:00+23ссз2223100 0.0 1012801
17:00+23ссз2322100 0.0 10121027
20:00+22юз112589 0.0 101212